{"data":{"norad_id":57059,"epoch":"2026-05-25T02:35:41.371008Z","epoch_age_seconds":65936,"freshness":"FRESH","line1":"1 57059U 23088M   26145.10811772 -.00000048  00000+0  77937-5 0  9992","line2":"2 57059  43.0061  38.7366 0001593 267.4388  92.6281 15.27577328162027","mean_motion":15.27577328,"eccentricity":0.0001593,"inclination_deg":43.0061,"raan_deg":38.7366,"arg_perigee_deg":267.4388,"mean_anomaly_deg":92.6281,"bstar":7.7937e-6,"rev_number":16202,"period_min":94.266913602687,"perigee_km":481.96410876091,"apogee_km":484.15008520021,"semimajor_km":6861.1940969806,"source":"CELESTRAK","updated_at":"2026-05-25T13:38:18.210302Z"}}